IW9GDC-13 Weather Reports


Display with metric or nautical units.
time (UTC)temp
F
wind
direction
speed
MPH
gust
MPH
rain 1hr
in
rain 24hr
in
rain mn
in
humidity
%
barometer
mb
20260902191516 82 315 3.0 9.0 0.00 0.00 0.00 69 1018.2
20260902191016 83 293 3.0 8.0 0.00 0.00 0.00 69 1018.3
20260902190516 83 315 2.0 7.0 0.00 0.00 0.00 68 1018.2
20260902190016 83 338 2.0 5.0 0.00 0.00 0.00 68 1018.3
20260902185537 83 315 3.0 7.0 0.00 0.00 0.00 68 1018.3
20260902185016 83 338 4.0 9.0 0.00 0.00 0.00 69 1018.2
20260902184516 82 338 4.0 8.0 0.00 0.00 0.00 69 1018.2
20260902184016 82 0 2.0 6.0 0.00 0.00 0.00 70 1018.1
20260902183516 83 338 3.0 6.0 0.00 0.00 0.00 70 1018.1
20260902183016 83 315 2.0 5.0 0.00 0.00 0.00 69 1018.0
20260902182516 83 0 2.0 6.0 0.00 0.00 0.00 69 1017.9
20260902182016 83 315 3.0 6.0 0.00 0.00 0.00 69 1017.8
20260902181516 83 338 4.0 9.0 0.00 0.00 0.00 69 1017.7
20260902181018 83 0 4.0 11.0 0.00 0.00 0.00 69 1017.6
20260902180536 83 338 4.0 8.0 0.00 0.00 0.00 69 1017.6
20260902180016 83 338 3.0 8.0 0.00 0.00 0.00 69 1017.5
20260902175536 83 0 5.0 11.0 0.00 0.00 0.00 69 1017.4
20260902175056 83 0 4.0 13.0 0.00 0.00 0.00 69 1017.4
20260902174516 83 338 3.0 6.0 0.00 0.00 0.00 69 1017.3
20260902174016 83 338 5.0 12.0 0.00 0.00 0.00 69 1017.4
20260902173516 83 0 5.0 11.0 0.00 0.00 0.00 68 1017.3
20260902173016 83 293 4.0 9.0 0.00 0.00 0.00 68 1017.3
20260902172517 83 293 5.0 12.0 0.00 0.00 0.00 67 1017.3
20260902172016 84 338 3.0 6.0 0.00 0.00 0.00 67 1017.3
20260902171516 84 338 1.0 4.0 0.00 0.00 0.00 67 1017.3
20260902171016 84 315 1.0 4.0 0.00 0.00 0.00 67 1017.4
20260902170516 84 315 3.0 5.0 0.00 0.00 0.00 66 1017.4
20260902170016 84 293 3.0 8.0 0.00 0.00 0.00 66 1017.4
20260902165516 84 338 3.0 8.0 0.00 0.00 0.00 66 1017.3
20260902165016 85 315 2.0 5.0 0.00 0.00 0.00 66 1017.4
20260902164516 85 338 3.0 8.0 0.00 0.00 0.00 66 1017.3
20260902164036 85 315 3.0 6.0 0.00 0.00 0.00 65 1017.5
20260902163536 85 0 5.0 13.0 0.00 0.00 0.00 65 1017.5
20260902163017 86 293 5.0 10.0 0.00 0.00 0.00 64 1017.6
20260902162516 86 293 2.0 9.0 0.00 0.00 0.00 63 1017.7
20260902162036 86 338 3.0 10.0 0.00 0.00 0.00 62 1017.7
20260902161516 87 270 2.0 6.0 0.00 0.00 0.00 61 1017.7
20260902161016 87 293 3.0 9.0 0.00 0.00 0.00 59 1017.7
20260902160517 88 315 4.0 12.0 0.00 0.00 0.00 58 1017.7
20260902160016 88 315 4.0 12.0 0.00 0.00 0.00 55 1017.5
20260902155516 88 293 3.0 8.0 0.00 0.00 0.00 57 1017.5
20260902155018 88 293 3.0 9.0 0.00 0.00 0.00 57 1017.5
20260902154516 88 293 5.0 11.0 0.00 0.00 0.00 56 1017.5
20260902154016 88 293 7.0 13.0 0.00 0.00 0.00 53 1017.5
20260902153516 88 270 6.0 15.0 0.00 0.00 0.00 55 1017.6
20260902153016 88 338 6.0 12.0 0.00 0.00 0.00 53 1017.7
20260902152516 89 270 7.0 12.0 0.00 0.00 0.00 53 1017.6
20260902152016 89 270 4.0 13.0 0.00 0.00 0.00 55 1017.7
20260902151536 89 293 6.0 12.0 0.00 0.00 0.00 55 1017.6
20260902151036 89 293 6.0 13.0 0.00 0.00 0.00 53 1017.6
20260902150516 89 315 7.0 13.0 0.00 0.00 0.00 53 1017.6
20260902150016 89 270 6.0 11.0 0.00 0.00 0.00 53 1017.7
20260902145515 89 293 5.0 16.0 0.00 0.00 0.00 52 1017.6
20260902145016 90 293 5.0 13.0 0.00 0.00 0.00 51 1017.7
20260902144516 90 270 5.0 10.0 0.00 0.00 0.00 50 1017.7
20260902144015 90 0 3.0 8.0 0.00 0.00 0.00 50 1017.7
20260902143515 90 0 6.0 13.0 0.00 0.00 0.00 49 1017.6
20260902143036 90 23 6.0 13.0 0.00 0.00 0.00 48 1017.7
20260902142516 91 293 4.0 12.0 0.00 0.00 0.00 48 1017.7
20260902142016 91 293 4.0 12.0 0.00 0.00 0.00 47 1017.7
20260902141515 91 293 4.0 11.0 0.00 0.00 0.00 47 1017.8
20260902141015 90 293 6.0 13.0 0.00 0.00 0.00 45 1017.8
20260902140516 90 338 5.0 10.0 0.00 0.00 0.00 46 1017.8
20260902140015 90 293 7.0 13.0 0.00 0.00 0.00 46 1017.8
20260902135516 90 270 6.0 15.0 0.00 0.00 0.00 47 1017.8
20260902135016 90 315 5.0 13.0 0.00 0.00 0.00 47 1017.9
20260902134516 90 270 7.0 14.0 0.00 0.00 0.00 49 1018.0
20260902134015 90 270 7.0 13.0 0.00 0.00 0.00 50 1018.0
20260902133516 90 315 8.0 14.0 0.00 0.00 0.00 49 1018.0
20260902133015 90 270 8.0 16.0 0.00 0.00 0.00 49 1018.1
20260902132516 90 270 7.0 13.0 0.00 0.00 0.00 49 1018.0
20260902132015 91 315 7.0 16.0 0.00 0.00 0.00 48 1018.1
20260902131515 91 270 7.0 11.0 0.00 0.00 0.00 49 1018.1
20260902131015 91 270 5.0 12.0 0.00 0.00 0.00 48 1018.2
20260902130515 91 270 5.0 11.0 0.00 0.00 0.00 49 1018.1
20260902130015 91 338 5.0 11.0 0.00 0.00 0.00 49 1018.1
20260902125535 91 68 5.0 11.0 0.00 0.00 0.00 50 1018.2
20260902125015 91 23 7.0 15.0 0.00 0.00 0.00 51 1018.2
20260902124515 91 293 5.0 10.0 0.00 0.00 0.00 51 1018.2
20260902124015 91 315 7.0 15.0 0.00 0.00 0.00 51 1018.3
20260902123515 91 0 4.0 11.0 0.00 0.00 0.00 50 1018.2
20260902123017 91 293 9.0 15.0 0.00 0.00 0.00 49 1018.3
20260902122537 91 0 5.0 11.0 0.00 0.00 0.00 46 1018.3
20260902122037 92 23 5.0 12.0 0.00 0.00 0.00 49 1018.4
20260902121537 91 0 6.0 16.0 0.00 0.00 0.00 48 1018.4
20260902121037 91 0 5.0 13.0 0.00 0.00 0.00 49 1018.4
20260902120537 91 0 7.0 12.0 0.00 0.00 0.00 49 1018.5
20260902120017 91 23 7.0 15.0 0.00 0.00 0.00 47 1018.5
20260902115517 91 338 6.0 15.0 0.00 0.00 0.00 51 1018.5
20260902115017 90 315 6.0 15.0 0.00 0.00 0.00 52 1018.6
20260902114557 90 23 8.0 14.0 0.00 0.00 0.00 53 1018.6
20260902114017 90 0 7.0 15.0 0.00 0.00 0.00 53 1018.7
20260902113517 90 315 4.0 10.0 0.00 0.00 0.00 55 1018.6
20260902113037 90 0 8.0 15.0 0.00 0.00 0.00 56 1018.5
20260902112517 90 338 8.0 19.0 0.00 0.00 0.00 54 1018.6
20260902112017 90 315 6.0 17.0 0.00 0.00 0.00 56 1018.5
20260902111517 90 315 7.0 15.0 0.00 0.00 0.00 55 1018.6
20260902111017 90 315 8.0 15.0 0.00 0.00 0.00 55 1018.6
20260902110537 90 293 5.0 11.0 0.00 0.00 0.00 56 1018.6
20260902110017 90 0 6.0 15.0 0.00 0.00 0.00 55 1018.7
20260902105517 90 0 6.0 12.0 0.00 0.00 0.00 55 1018.7
20260902105017 90 0 6.0 10.0 0.00 0.00 0.00 55 1018.9
20260902104517 91 248 3.0 8.0 0.00 0.00 0.00 55 1018.9
20260902104017 90 23 3.0 8.0 0.00 0.00 0.00 56 1019.0
20260902103537 90 270 5.0 15.0 0.00 0.00 0.00 56 1018.9
20260902103017 90 293 5.0 12.0 0.00 0.00 0.00 56 1018.9
20260902102517 90 0 4.0 11.0 0.00 0.00 0.00 56 1018.9
20260902102017 90 248 5.0 12.0 0.00 0.00 0.00 56 1018.9
20260902101517 90 293 4.0 8.0 0.00 0.00 0.00 56 1018.9
20260902101037 89 248 5.0 13.0 0.00 0.00 0.00 57 1019.0
20260902100517 89 315 5.0 12.0 0.00 0.00 0.00 57 1019.1
20260902100017 89 293 5.0 11.0 0.00 0.00 0.00 57 1019.1
20260902095537 89 338 6.0 11.0 0.00 0.00 0.00 57 1019.1
20260902095017 90 0 5.0 12.0 0.00 0.00 0.00 57 1019.1
20260902094517 90 0 5.0 13.0 0.00 0.00 0.00 56 1019.2
20260902094017 89 293 4.0 10.0 0.00 0.00 0.00 56 1019.1
20260902093517 89 293 6.0 16.0 0.00 0.00 0.00 57 1019.2
20260902093017 89 315 4.0 13.0 0.00 0.00 0.00 57 1019.1
20260902092517 89 293 4.0 13.0 0.00 0.00 0.00 57 1019.1
20260902092017 88 293 9.0 17.0 0.00 0.00 0.00 57 1019.1
20260902091517 89 315 7.0 14.0 0.00 0.00 0.00 56 1019.2
20260902091017 89 293 6.0 16.0 0.00 0.00 0.00 56 1019.1
20260902090517 89 293 6.0 14.0 0.00 0.00 0.00 56 1019.1
20260902090018 89 293 4.0 11.0 0.00 0.00 0.00 56 1019.0
20260902085517 89 293 5.0 11.0 0.00 0.00 0.00 58 1019.0
20260902085017 89 315 4.0 10.0 0.00 0.00 0.00 58 1018.9
20260902084517 88 338 6.0 12.0 0.00 0.00 0.00 59 1018.9
20260902084016 88 0 6.0 11.0 0.00 0.00 0.00 58 1018.8
20260902083516 88 0 8.0 12.0 0.00 0.00 0.00 58 1018.7
20260902083017 88 23 3.0 11.0 0.00 0.00 0.00 57 1018.8
20260902082537 88 315 5.0 10.0 0.00 0.00 0.00 58 1018.7
20260902082016 88 0 6.0 13.0 0.00 0.00 0.00 58 1018.7
20260902081517 88 315 4.0 9.0 0.00 0.00 0.00 58 1018.8
20260902081016 88 293 3.0 10.0 0.00 0.00 0.00 59 1018.7
20260902080516 87 293 5.0 11.0 0.00 0.00 0.00 59 1018.7
20260902080017 87 315 6.0 13.0 0.00 0.00 0.00 60 1018.7
20260902075536 87 315 8.0 17.0 0.00 0.00 0.00 60 1018.6
20260902075016 87 293 7.0 16.0 0.00 0.00 0.00 59 1018.5
20260902074516 87 315 5.0 12.0 0.00 0.00 0.00 59 1018.5
20260902074019 87 338 6.0 12.0 0.00 0.00 0.00 59 1018.3
20260902073516 87 293 6.0 11.0 0.00 0.00 0.00 59 1018.3
20260902073016 87 293 6.0 12.0 0.00 0.00 0.00 59 1018.3
20260902072517 87 270 4.0 10.0 0.00 0.00 0.00 59 1018.3
20260902072017 87 270 4.0 9.0 0.00 0.00 0.00 58 1018.3
20260902071539 87 248 1.0 3.0 0.00 0.00 0.00 59 1018.2
20260902071016 86 0 4.0 13.0 0.00 0.00 0.00 59 1018.2
20260902070517 86 270 5.0 8.0 0.00 0.00 0.00 59 1018.1
20260902070017 86 270 4.0 8.0 0.00 0.00 0.00 59 1018.2
20260902065516 86 270 4.0 11.0 0.00 0.00 0.00 58 1018.1
20260902065016 87 0 4.0 9.0 0.00 0.00 0.00 58 1018.1
20260902064517 86 225 3.0 9.0 0.00 0.00 0.00 59 1018.1
20260902064016 86 0 3.0 8.0 0.00 0.00 0.00 58 1018.1
20260902063516 86 45 2.0 6.0 0.00 0.00 0.00 59 1018.1
20260902063016 86 0 5.0 10.0 0.00 0.00 0.00 59 1018.0
20260902062516 86 0 6.0 14.0 0.00 0.00 0.00 58 1018.1
20260902062016 86 293 3.0 7.0 0.00 0.00 0.00 58 1018.1
20260902061516 86 338 2.0 6.0 0.00 0.00 0.00 59 1018.1
20260902061016 86 0 4.0 8.0 0.00 0.00 0.00 59 1018.0
20260902060517 85 270 3.0 7.0 0.00 0.00 0.00 60 1018.1
20260902060016 85 293 2.0 4.0 0.00 0.00 0.00 60 1018.0
20260902055517 85 203 2.0 5.0 0.00 0.00 0.00 60 1018.0
20260902055016 85 225 1.0 3.0 0.00 0.00 0.00 60 1018.0
20260902054516 85 203 1.0 4.0 0.00 0.00 0.00 60 1018.0
20260902054038 85 270 1.0 4.0 0.00 0.00 0.00 60 1018.0
20260902053516 85 338 3.0 8.0 0.00 0.00 0.00 59 1018.0
20260902053016 84 315 2.0 6.0 0.00 0.00 0.00 60 1017.9
20260902052636 84 315 2.0 7.0 0.00 0.00 0.00 60 1017.9
20260902052017 84 315 3.0 6.0 0.00 0.00 0.00 60 1017.9
20260902051516 83 0 3.0 7.0 0.00 0.00 0.00 61 1017.9
20260902051016 83 315 2.0 7.0 0.00 0.00 0.00 63 1017.8
20260902050516 83 293 4.0 9.0 0.00 0.00 0.00 63 1017.9
20260902050016 83 270 6.0 15.0 0.00 0.00 0.00 64 1017.8
20260902045516 83 293 5.0 10.0 0.00 0.00 0.00 65 1018.0
20260902045017 83 293 7.0 18.0 0.00 0.00 0.00 65 1017.9
20260902044517 83 270 9.0 16.0 0.00 0.00 0.00 65 1018.0
20260902044016 82 270 6.0 16.0 0.00 0.00 0.00 65 1017.8
20260902043516 82 315 8.0 16.0 0.00 0.00 0.00 66 1017.9
20260902043016 83 315 4.0 11.0 0.00 0.00 0.00 64 1017.9
20260902042516 83 270 8.0 15.0 0.00 0.00 0.00 63 1017.9
20260902042016 82 270 8.0 16.0 0.00 0.00 0.00 64 1017.8
20260902041519 82 293 6.0 13.0 0.00 0.00 0.00 65 1017.8
20260902041018 83 270 7.0 18.0 0.00 0.00 0.00 65 1017.8
20260902040516 83 270 10.0 18.0 0.00 0.00 0.00 65 1017.7
20260902040016 83 270 9.0 17.0 0.00 0.00 0.00 64 1017.7
20260902035516 83 270 9.0 18.0 0.00 0.00 0.00 63 1017.6
20260902035016 83 270 6.0 16.0 0.00 0.00 0.00 63 1017.6
20260902034516 83 270 9.0 24.0 0.00 0.00 0.00 63 1017.6
20260902034016 83 270 8.0 18.0 0.00 0.00 0.00 63 1017.6
20260902033516 83 270 12.0 19.0 0.00 0.00 0.00 65 1017.7
20260902033016 83 293 7.0 16.0 0.00 0.00 0.00 64 1017.8
20260902032536 83 270 8.0 17.0 0.00 0.00 0.00 65 1017.8
20260902032016 83 270 6.0 13.0 0.00 0.00 0.00 65 1017.8
20260902031536 83 270 8.0 16.0 0.00 0.00 0.00 64 1017.8
20260902031016 83 270 6.0 14.0 0.00 0.00 0.00 64 1017.8
20260902030516 83 270 9.0 19.0 0.00 0.00 0.00 64 1017.8
20260902030016 83 270 9.0 21.0 0.00 0.00 0.00 64 1017.7
20260902025516 83 270 9.0 18.0 0.00 0.00 0.00 64 1018.0
20260902025016 83 270 8.0 19.0 0.00 0.00 0.00 64 1017.9
20260902024516 83 270 11.0 22.0 0.00 0.00 0.00 64 1018.0
20260902024016 83 270 9.0 19.0 0.00 0.00 0.00 65 1017.9
20260902023536 83 270 11.0 22.0 0.00 0.00 0.00 65 1018.0
20260902023016 83 270 11.0 22.0 0.00 0.00 0.00 64 1017.9
20260902022516 82 270 6.0 13.0 0.00 0.00 0.00 65 1018.0
20260902022016 83 270 10.0 19.0 0.00 0.00 0.00 65 1018.0
20260902021515 83 270 9.0 17.0 0.00 0.00 0.00 66 1018.0
20260902021039 83 270 12.0 25.0 0.00 0.00 0.00 65 1018.0
20260902020516 82 293 9.0 19.0 0.00 0.00 0.00 65 1018.0
20260902020035 82 270 10.0 20.0 0.00 0.00 0.00 66 1018.0
20260902015517 82 270 10.0 19.0 0.00 0.00 0.00 67 1017.9
20260902015015 82 270 10.0 20.0 0.00 0.00 0.00 67 1017.9
20260902014516 82 270 12.0 23.0 0.00 0.00 0.00 68 1018.1
20260902014016 82 270 8.0 15.0 0.00 0.00 0.00 67 1018.0
20260902013515 82 270 9.0 16.0 0.00 0.00 0.00 67 1018.0
20260902013015 82 270 7.0 14.0 0.00 0.00 0.00 67 1018.0
20260902012516 82 270 4.0 12.0 0.00 0.00 0.00 67 1018.1
20260902012015 82 270 6.0 13.0 0.00 0.00 0.00 67 1018.0
20260902011515 82 270 10.0 17.0 0.00 0.00 0.00 67 1018.2
20260902011016 82 315 9.0 16.0 0.00 0.00 0.00 68 1018.2
20260902010536 82 270 10.0 15.0 0.00 0.00 0.00 68 1018.3
20260902010016 82 270 8.0 14.0 0.00 0.00 0.00 67 1018.2
20260902005516 82 270 10.0 20.0 0.00 0.00 0.00 67 1018.2
20260902005015 82 270 10.0 18.0 0.00 0.00 0.00 66 1018.2
20260902004515 82 270 10.0 21.0 0.00 0.00 0.00 67 1018.2
20260902004015 82 270 8.0 17.0 0.00 0.00 0.00 67 1018.1
20260902003515 82 270 8.0 15.0 0.00 0.00 0.00 67 1018.0
20260902003015 82 270 8.0 15.0 0.00 0.00 0.00 68 1018.0
20260902002516 82 270 7.0 13.0 0.00 0.00 0.00 69 1018.1
20260902002016 82 270 7.0 12.0 0.00 0.00 0.00 69 1018.2
20260902001515 82 270 10.0 16.0 0.00 0.00 0.00 68 1018.2
20260902001015 82 293 6.0 15.0 0.00 0.00 0.00 68 1018.2
20260902000517 82 293 4.0 8.0 0.00 0.00 0.00 69 1018.3
20260902000035 82 293 5.0 11.0 0.00 0.00 0.00 68 1018.3
20260901235538 82 315 6.0 12.0 0.00 0.00 0.00 67 1018.4
20260901235017 82 270 3.0 9.0 0.00 0.00 0.00 69 1018.3
20260901234517 82 338 5.0 9.0 0.00 0.00 0.00 69 1018.3
20260901234017 82 270 8.0 15.0 0.00 0.00 0.00 68 1018.3
20260901233517 82 293 6.0 13.0 0.00 0.00 0.00 69 1018.3
20260901233017 82 315 5.0 12.0 0.00 0.00 0.00 68 1018.3
20260901232537 82 338 7.0 13.0 0.00 0.00 0.00 68 1018.3
20260901232017 82 338 8.0 26.0 0.00 0.00 0.00 67 1018.1
20260901231517 82 0 5.0 11.0 0.00 0.00 0.00 69 1018.2
20260901231017 82 338 5.0 13.0 0.00 0.00 0.00 68 1018.1
20260901230517 82 315 5.0 11.0 0.00 0.00 0.00 69 1018.1
20260901230057 82 338 5.0 16.0 0.00 0.00 0.00 69 1018.1
20260901225518 82 338 6.0 16.0 0.00 0.00 0.00 69 1017.8
20260901225017 82 315 5.0 12.0 0.00 0.00 0.00 69 1017.8
20260901224517 82 315 5.0 10.0 0.00 0.00 0.00 70 1017.8
20260901224038 82 23 3.0 9.0 0.00 0.00 0.00 70 1017.9
20260901223517 82 293 4.0 12.0 0.00 0.00 0.00 71 1017.9
20260901223017 82 338 4.0 9.0 0.00 0.00 0.00 71 1017.9
20260901222517 82 315 4.0 10.0 0.00 0.00 0.00 71 1017.9
20260901222017 82 315 5.0 9.0 0.00 0.00 0.00 71 1017.9
20260901221537 82 293 4.0 8.0 0.00 0.00 0.00 71 1017.9
20260901221017 82 0 4.0 9.0 0.00 0.00 0.00 71 1017.9
20260901220517 82 293 2.0 8.0 0.00 0.00 0.00 71 1018.0
20260901220019 82 338 4.0 12.0 0.00 0.00 0.00 71 1018.0
20260901215518 82 315 1.0 4.0 0.00 0.00 0.00 71 1018.0
20260901215017 82 0 4.0 8.0 0.00 0.00 0.00 71 1018.0
20260901214516 82 0 3.0 9.0 0.00 0.00 0.00 71 1018.0
20260901214017 82 338 2.0 7.0 0.00 0.00 0.00 71 1018.0
20260901213517 82 315 2.0 4.0 0.00 0.00 0.00 71 1018.0
20260901213016 82 338 4.0 10.0 0.00 0.00 0.00 70 1018.0
20260901212519 82 270 2.0 5.0 0.00 0.00 0.00 70 1018.1
20260901212017 82 270 1.0 3.0 0.00 0.00 0.00 71 1018.0
20260901211517 82 0 3.0 8.0 0.00 0.00 0.00 70 1018.1
20260901211016 82 338 2.0 8.0 0.00 0.00 0.00 70 1018.1
20260901210517 82 315 3.0 5.0 0.00 0.00 0.00 70 1018.0
20260901210016 82 338 5.0 11.0 0.00 0.00 0.00 69 1018.0
20260901205517 82 315 4.0 8.0 0.00 0.00 0.00 70 1018.0
20260901205016 82 315 6.0 13.0 0.00 0.00 0.00 70 1018.1
20260901204516 82 293 6.0 12.0 0.00 0.00 0.00 70 1018.1
20260901204017 82 315 3.0 9.0 0.00 0.00 0.00 70 1018.1
20260901203516 82 315 6.0 11.0 0.00 0.00 0.00 70 1018.1
20260901203036 82 293 4.0 10.0 0.00 0.00 0.00 70 1018.1
20260901202517 82 315 6.0 13.0 0.00 0.00 0.00 70 1018.1
20260901202017 82 293 6.0 13.0 0.00 0.00 0.00 70 1018.2
20260901201537 82 293 4.0 9.0 0.00 0.00 0.00 70 1018.2
20260901201016 82 315 4.0 9.0 0.00 0.00 0.00 70 1018.3
20260901200516 82 293 3.0 8.0 0.00 0.00 0.00 70 1018.4
20260901200017 82 315 4.0 9.0 0.00 0.00 0.00 70 1018.4
20260901195516 82 315 2.0 9.0 0.00 0.00 0.00 70 1018.4
20260901195017 82 293 4.0 11.0 0.00 0.00 0.00 70 1018.3
20260901194516 82 293 3.0 7.0 0.00 0.00 0.00 70 1018.4
20260901194016 82 315 5.0 11.0 0.00 0.00 0.00 70 1018.4
20260901193539 82 315 5.0 10.0 0.00 0.00 0.00 70 1018.4
20260901193016 82 315 6.0 11.0 0.00 0.00 0.00 70 1018.3
20260901192517 82 293 5.0 10.0 0.00 0.00 0.00 70 1018.2
20260901192016 82 315 5.0 12.0 0.00 0.00 0.00 69 1018.2